Regional Weather Roundup
Issued by NWS

Home | Current Version | Previous Version | Graphics & Text | Print | Product List | Glossary On
Versions: 1 2 3 4 5 6 7 8 9 10 11 12 13 14 15 16 17 18 19 20 21 22 23 24 25 26 27 28 29 30 31 32 33 34 35 36 37 38 39 40 41 42 43 44 45 46 47 48 49 50
000
ASUS45 KBOU 020207
RWRCO

WEATHER ROUNDUP FOR COLORADO
NATIONAL WEATHER SERVICE DENVER/BOULDER CO
800 PM MDT MON JUN 01 2015

NOTE: "FAIR" INDICATES FEW OR NO CLOUDS BELOW 12000 FEET WITH NO
SIGNIFICANT WEATHER AND/OR OBSTRUCTIONS TO VISIBILITY.

COZ001>005-013-030-031-020300-
...NORTHWEST COLORADO...

CITY           SKY/WX    TMP DP  RH WIND       PRES   REMARKS
CRAIG          PTCLDY    70  46  42 SW5       29.98S
HAYDEN         PTCLDY    68  43  40 E12       30.02S
MEEKER         PTCLDY    74  40  29 S9        30.00S
MOUNT WERNER   NOT AVBL
STEAMBOAT SPGS PTCLDY    67  43  41 E9        30.06S
WALDEN         MOCLDY    59  41  51 S10       30.17F
$$

COZ006>008-011-020300-
...WEST CENTRAL VALLEYS...

CITY           SKY/WX    TMP DP  RH WIND       PRES   REMARKS
GRAND JUNCTION PTCLDY    86  34  15 S6        29.86F
MONTROSE       PTCLDY    82  32  16 S10       30.00R
EAGLE          PTCLDY    79  48  34 E9        30.06S
RIFLE          PTCLDY    81  33  17 S15       29.93F
DELTA          PTCLDY    87  24  10 SW15G21   29.93S
NUCLA          PTCLDY    82  21  10 SW14G23   30.04R
$$

COZ017>023-064>068-020300-
...SOUTHWEST COLORADO...

CITY           SKY/WX    TMP DP  RH WIND       PRES   REMARKS
DURANGO        CLEAR     75  32  20 W8        30.10S
CORTEZ         CLEAR     81  33  17 SW8       30.03S
PAGOSA SPRINGS CLEAR     71  33  25 W5        30.20R
TELLURIDE      PTCLDY    68  28  22 W9        30.30S
WOLF CREEK PAS NOT AVBL
$$

COZ009-010-012-014-032>034-037-058>063-020300-
...CENTRAL COLORADO...

CITY           SKY/WX    TMP DP  RH WIND       PRES   REMARKS
ASPEN          PTCLDY    68  34  28 S13G29    30.16S
BUENA VISTA    MOCLDY    65  33  29 W9        30.22S
COPPER MTN     PTCLDY    50  30  46 S22       30.49R
BERTHOUD PASS  FAIR      41  34  75 W12G18    30.52S
COTTONWOOD PAS NOT AVBL
GUNNISON       PTCLDY    66  34  30 SW7       30.22R
KREMMLING      PTCLDY    68  37  32 CALM      30.14R
LEADVILLE      MOCLDY    57  29  34 S14G20    30.33S
MONARCH PASS   PTCLDY    45  32  61 W17       30.60S
SALIDA         MOCLDY    69  36  30 W6        30.27R
SUNLIGHT       CLOUDY    54  32  43 CALM      30.38S
WILKERSON PASS PTCLDY    50  32  50 SW6       30.47F
$$

COZ069>075-020300-
...SAN LUIS VALLEY/SANGRE DE CRISTO MOUNTAINS...

CITY           SKY/WX    TMP DP  RH WIND       PRES   REMARKS
ALAMOSA        CLEAR     68  35  29 S5        30.20R
LA VETA PASS   PTCLDY   N/A N/A N/A MISG      30.41R
SAGUACHE       PTCLDY    63  43  48 CALM      30.24S
$$

COZ035-036-038>040-020300-
...NORTHERN COLORADO FRONT RANGE...

CITY           SKY/WX    TMP DP  RH WIND       PRES   REMARKS
DENVER INTL AP MOCLDY    66  51  58 S10       30.01F
DMNS CITY PARK NOT AVBL
AURORA         MOCLDY    64  51  62 SE10      30.05F
FRONT RANGE AP MOCLDY    72  50  46 S7        30.03F
ERIE MUNI ARPT PTCLDY    67  48  49 CALM      30.00S
BOULDER MUN AP PTCLDY    73  43  33 CALM      29.99F
CENTENNIAL     PTCLDY    68  46  45 S8        30.05S
BROOMFIELD     MOCLDY    72  48  43 VRB5      30.04F
FORT COLLINS   MOCLDY    72  50  46 S8        29.99R
LONGMONT       MOCLDY    74  46  36 CALM      30.00F
$$

COZ041-046-047-076>085-087-088-020300-
...PIKES PEAK/PALMER DIVIDE AND SOUTHERN FOOTHILLS...

CITY           SKY/WX    TMP DP  RH WIND       PRES   REMARKS
COLO. SPRINGS  MOCLDY    69  48  47 SE6       30.11R
A. F. ACADEMY  PTCLDY    69  47  45 S5        30.12F
ELLICOTT       MOCLDY   N/A N/A N/A S13G18    30.11S
FALCON         MOCLDY    66  47  49 SE6       30.17S
FORT CARSON    NOT AVBL
LIMON          MOCLDY    68  57  68 S5        30.05R
MONUMENT HILL  MOCLDY    61  48  63 NE8       30.16S
TRINIDAD       MOCLDY    69  46  43 NW6       30.10R
$$

COZ042>045-048>051-090-091-020300-
...NORTHEAST COLORADO...

CITY           SKY/WX    TMP DP  RH WIND       PRES   REMARKS
GREELEY ARPT   PTCLDY    73  48  40 SW13      29.98S
AKRON          MOCLDY    68  55  63 N6        30.01R
BURLINGTON     CLOUDY    75  63  66 SE17      29.99S
WRAY           MOCLDY    77  60  54 SE12G17   29.95R
STERLING       MOCLDY    68  55  64 NE16G22   29.98R
HOLYOKE        NOT AVBL
FORT MORGAN    MOCLDY    72 -21   2 N5        30.00R
$$

COZ086-089-092>099-020300-
...SOUTHEAST COLORADO...

CITY           SKY/WX    TMP DP  RH WIND       PRES   REMARKS
PUEBLO         CLOUDY    68  53  58 E8        30.02F
LA JUNTA       TSTM      67  56  67 MISG      30.04R
LAMAR          PTCLDY    78  58  49 S12       29.94R
SPRINGFIELD      N/A     70  61  73 SE10      30.00S
$$


USA.gov is the U.S. government's official web portal to all federal, state and local government web resources and services.